Schaffen, Belgium

5:18 AM CET on February 23, 2017 (GMT +0100)
Schaffen

Weather History for EBDT - October, 2012

Change the Weather History Date:

Saturday, October 13, 2012

  Actual Average Record
Temperature  
Mean Temperature 48 °F -  
Max Temperature 52 °F 51 °F 71 °F (2008)
Min Temperature 44 °F 44 °F 34 °F (2015)
Degree Days  
Heating Degree Days 17    
Moisture  
Dew Point 45 °F    
Average Humidity 87    
Maximum Humidity 94    
Minimum Humidity 79    
Precipitation  
Precipitation 0.20 in - - ()
Sea Level Pressure  
Sea Level Pressure 29.74 in    
Wind  
Wind Speed 8 mph ()    
Max Wind Speed 14 mph    
Max Gust Speed -    
Visibility 6.4 miles    
Events Rain    
Averages and records for this station are not official NWS values.
T = Trace of Precipitation, MM = Missing Value Source: Averaged Metar Reports

Daily Weather History Graph

Daily Weather History Graph

Search for Another Location

Airport or City:

Trip Planner

Search our weather history database for the weather conditions in past years. The results will help you decide how hot, cold, wet, or windy it might be!

Date:

Astronomy

Oct. 13, 2012 Rise Set
Actual Time 8:00 AM CEST 6:50 PM CEST
Civil Twilight 7:26 AM CEST 7:23 PM CEST
Nautical Twilight 6:48 AM CEST 8:02 PM CEST
Astronomical Twilight 6:10 AM CEST 8:40 PM CEST
Moon 5:20 AM CEST (10/13) 5:33 PM CEST (10/13)
Length of Visible Light 11h 57m
Length of Day
10h 50m
Waning Crescent, 6% of the Moon is Illuminated
Oct 13
Waning Crescent
Oct 15
New
Oct 22
First Quarter
Oct 29
Full
Nov 7
Last Quarter

Hourly Weather History & Observations

Time (CEST) Temp. Windchill Dew Point Humidity Pressure Visibility Wind Dir Wind Speed Gust Speed Precip Events Conditions
12:25 AM 46.4 °F 42.9 °F 42.8 °F 87% 29.89 in 6.2 mi SSW 6.9 mph - N/A   Clear
1:25 AM 46.4 °F 42.9 °F 41.0 °F 81% 29.89 in 6.2 mi SSW 6.9 mph - N/A   Clear
2:00 AM 46 °F - 42 °F 79% 29.90 in 28 mi SSW 6.7 mph - -  
2:25 AM 46.4 °F 42.9 °F 41.0 °F 81% 29.89 in 6.2 mi South 6.9 mph - N/A   Clear
3:25 AM 44.6 °F 40.2 °F 41.0 °F 87% 29.86 in 6.2 mi South 8.1 mph - N/A   Partly Cloudy
4:25 AM 44.6 °F 40.7 °F 41.0 °F 87% 29.86 in 6.2 mi South 6.9 mph - N/A   Partly Cloudy
5:00 AM 45 °F - 41 °F 82% 29.86 in 28 mi South 8.9 mph - -   Partly Cloudy
5:25 AM 44.6 °F 39.7 °F 41.0 °F 87% 29.83 in 6.2 mi South 9.2 mph - N/A   Mostly Cloudy
6:25 AM 46.4 °F 41.9 °F 42.8 °F 87% 29.83 in 6.2 mi South 9.2 mph - N/A   Mostly Cloudy
6:33 AM 46.4 °F 41.5 °F 42.8 °F 87% 29.83 in 6.2 mi South 10.4 mph - N/A   Overcast
7:25 AM 48.2 °F - 42.8 °F 82% 29.80 in 6.2 mi South 9.2 mph - N/A   Overcast
7:28 AM 48.2 °F - 42.8 °F 82% 29.80 in 6.2 mi South 9.2 mph - N/A   Mostly Cloudy
7:34 AM 48.2 °F - 42.8 °F 82% 29.80 in 6.2 mi South 9.2 mph - N/A   Mostly Cloudy
7:43 AM 48.2 °F - 42.8 °F 82% 29.80 in 6.2 mi South 8.1 mph - N/A   Mostly Cloudy
7:53 AM 48.2 °F - 42.8 °F 82% 29.80 in 6.2 mi South 10.4 mph - N/A   Mostly Cloudy
7:59 AM 48.2 °F - 44.6 °F 87% 29.80 in 6.2 mi South 10.4 mph - N/A   Mostly Cloudy
8:00 AM 48 °F - 44 °F 79% 29.82 in 22 mi South 11.2 mph - -   Scattered Clouds
8:25 AM 48.2 °F - 44.6 °F 87% 29.80 in 6.2 mi South 9.2 mph - N/A   Mostly Cloudy
9:25 AM 48.2 °F - 44.6 °F 87% 29.80 in 6.2 mi South 9.2 mph - N/A   Mostly Cloudy
10:25 AM 50.0 °F - 44.6 °F 82% 29.77 in 6.2 mi South 9.2 mph - N/A   Overcast
11:00 AM 50 °F - 46 °F 79% 29.79 in 15 mi South 8.9 mph - - Rain Drizzle
11:25 AM 51.8 °F - 46.4 °F 82% 29.77 in 6.2 mi South 12.7 mph - N/A   Mostly Cloudy
11:39 AM 51.8 °F - 46.4 °F 82% 29.77 in 6.2 mi South 11.5 mph - N/A Rain Light Rain Showers
12:25 PM 50.0 °F - 48.2 °F 94% 29.74 in 5.6 mi South 11.5 mph - N/A Rain Light Rain Showers
12:29 PM 50.0 °F - 48.2 °F 94% 29.74 in 6.2 mi South 10.4 mph - N/A Rain Light Rain Showers
1:14 PM 51.8 °F - 48.2 °F 88% 29.74 in 6.2 mi South 10.4 mph - N/A Rain Light Rain Showers
1:25 PM 51.8 °F - 48.2 °F 88% 29.74 in 6.2 mi South 11.5 mph - N/A Rain Light Rain Showers
1:44 PM 51.8 °F - 48.2 °F 88% 29.71 in 6.2 mi South 10.4 mph - N/A Rain Light Rain Showers
1:50 PM 51.8 °F - 48.2 °F 88% 29.71 in 6.2 mi South 11.5 mph - N/A Rain Light Rain Showers
2:00 PM 52 °F - 49 °F 84% 29.73 in 7 mi South 11.2 mph - - Rain Light Rain Showers
2:25 PM 51.8 °F - 48.2 °F 88% 29.68 in 6.2 mi South 10.4 mph - N/A Rain Light Rain Showers
2:55 PM 51.8 °F - 48.2 °F 88% 29.68 in 6.2 mi South 9.2 mph - N/A Rain Light Rain Showers
3:25 PM 51.8 °F - 48.2 °F 88% 29.68 in 6.2 mi South 12.7 mph - N/A Rain Light Rain Showers
3:28 PM 51.8 °F - 50.0 °F 94% 29.65 in 5.6 mi South 11.5 mph - N/A Rain Rain Showers
4:00 PM 51.8 °F - 48.2 °F 88% 29.65 in 6.2 mi South 11.5 mph - N/A Rain Light Rain
4:25 PM 50.0 °F - 48.2 °F 94% 29.65 in 5.6 mi South 9.2 mph - N/A Rain Rain
4:50 PM 50.0 °F - 48.2 °F 94% 29.65 in 6.2 mi South 13.8 mph - N/A Rain Light Rain
5:00 PM 50 °F - 48 °F 89% 29.66 in 6 mi SSW 13.4 mph - - Rain Rain
5:16 PM 50.0 °F - 48.2 °F 94% 29.62 in 6.2 mi SW 5.8 mph - N/A Rain Light Rain
5:25 PM 50.0 °F - 48.2 °F 94% 29.62 in 6.2 mi SW 6.9 mph - N/A Rain Light Rain
6:21 PM 50.0 °F - 46.4 °F 87% 29.62 in 6.2 mi SSW 8.1 mph - N/A   Mostly Cloudy
6:25 PM 50.0 °F - 46.4 °F 87% 29.62 in 6.2 mi SSW 8.1 mph - N/A   Mostly Cloudy
6:36 PM 48.2 °F - 46.4 °F 93% 29.62 in 6.2 mi SSW 8.1 mph - N/A   Mostly Cloudy
7:25 PM 48.2 °F - 46.4 °F 93% 29.62 in 6.2 mi SSW 9.2 mph - N/A   Mostly Cloudy
8:00 PM 47 °F - 44 °F 86% 29.65 in 28 mi SSW 8.9 mph - -   Clear
8:25 PM 46.4 °F 42.4 °F 42.8 °F 87% 29.62 in 6.2 mi SSW 8.1 mph - N/A   Scattered Clouds
9:25 PM 46.4 °F 42.4 °F 42.8 °F 87% 29.62 in 6.2 mi SSW 8.1 mph - N/A   Clear
10:25 PM 46.4 °F 41.9 °F 42.8 °F 87% 29.62 in 6.2 mi SSW 9.2 mph - N/A   Mostly Cloudy
11:00 PM 46 °F - 42 °F 81% 29.65 in 28 mi SSW 11.2 mph - -   Scattered Clouds
11:25 PM 44.6 °F 40.2 °F 41.0 °F 87% 29.62 in 6.2 mi SSW 8.1 mph - N/A   Clear